When you browse on this site, cookies collect data to enhance your experience and personalize the content and advertising you see.
Visit our Privacy Policy to learn more. By continuing to use the site, you agree to this use of cookies and data.
  • In Portugal
  • List of Countries
  • For 7 days
  • Water Temperature
  • Satellite Maps
  • Weather Map
  • Weather Widgets
  • user-avatar
    Login

    Hourly Weather Kavarna

    Today, 11 December, Tuesday

    Time Temperature Precipitation Wind Pressure Humidity
    00:00 +2°C° 0.6 mm 7 mps 753 mmHg 80%
    01:00 +2°C° 0.6 mm 7 mps 754 mmHg 81%
    02:00 +1°C° 0.6 mm 8 mps 754 mmHg 82%
    03:00 0°C° 0.5 mm 8 mps 754 mmHg 83%
    04:00 0°C° 0.5 mm 8 mps 754 mmHg 84%
    05:00 0°C° 0.5 mm 9 mps 754 mmHg 85%
    06:00 0°C° 0.3 mm 9 mps 755 mmHg 85%
    07:00 0°C° 0.3 mm 8 mps 755 mmHg 85%
    08:00 0°C° 0.3 mm 8 mps 755 mmHg 85%
    09:00 0°C° 0.3 mm 8 mps 756 mmHg 86%
    10:00 0°C° 0.3 mm 8 mps 757 mmHg 86%
    11:00 +1°C° 0.3 mm 8 mps 757 mmHg 87%
    12:00 +2°C° 0.2 mm 7 mps 757 mmHg 85%
    13:00 +2°C° 0.2 mm 7 mps 758 mmHg 84%
    14:00 +2°C° 0.2 mm 7 mps 758 mmHg 83%
    15:00 +2°C° 0.1 mm 7 mps 758 mmHg 83%
    16:00 +2°C° 0.1 mm 6 mps 759 mmHg 83%
    17:00 +2°C° 0.1 mm 6 mps 759 mmHg 83%
    18:00 +2°C° 0.1 mm 6 mps 759 mmHg 83%
    19:00 +2°C° 0.1 mm 6 mps 759 mmHg 84%
    20:00 +1°C° 0.1 mm 6 mps 759 mmHg 85%
    21:00 +1°C° 0 mm 6 mps 760 mmHg 85%
    22:00 +1°C° 0 mm 5 mps 760 mmHg 84%
    23:00 +1°C° 0 mm 5 mps 760 mmHg 84%

    Tomorrow, 12 December, Wednesday

    Time Temperature Precipitation Wind Pressure Humidity
    00:00 +1°C° 0 mm 5 mps 760 mmHg 83%
    01:00 +1°C° 0 mm 5 mps 760 mmHg 83%
    02:00 +1°C° 0 mm 5 mps 760 mmHg 82%
    03:00 +1°C° 0 mm 5 mps 760 mmHg 83%
    04:00 0°C° 0 mm 5 mps 760 mmHg 83%
    05:00 0°C° 0 mm 5 mps 760 mmHg 84%
    06:00 0°C° 0 mm 4 mps 760 mmHg 85%
    07:00 0°C° 0 mm 4 mps 760 mmHg 86%
    08:00 -1°C° 0 mm 4 mps 761 mmHg 86%
    09:00 +1°C° 0 mm 3 mps 761 mmHg 84%
    10:00 +2°C° 0 mm 3 mps 761 mmHg 82%
    11:00 +2°C° 0 mm 3 mps 761 mmHg 80%
    12:00 +3°C° 0.1 mm 4 mps 761 mmHg 79%
    13:00 +3°C° 0.1 mm 4 mps 761 mmHg 77%
    14:00 +3°C° 0.1 mm 4 mps 761 mmHg 76%
    15:00 +3°C° 0 mm 4 mps 761 mmHg 79%
    16:00 +1°C° 0 mm 5 mps 762 mmHg 81%
    17:00 0°C° 0 mm 5 mps 762 mmHg 83%
    18:00 0°C° 0 mm 5 mps 762 mmHg 84%
    19:00 0°C° 0 mm 5 mps 762 mmHg 84%
    20:00 -1°C° 0 mm 6 mps 762 mmHg 85%
    21:00 -1°C° 0 mm 6 mps 762 mmHg 84%
    22:00 -1°C° 0 mm 6 mps 763 mmHg 82%
    23:00 -1°C° 0 mm 7 mps 763 mmHg 81%

    Day after tomorrow, 13 December, Thursday

    Time Temperature Precipitation Wind Pressure Humidity
    00:00 -1°C° 0 mm 7 mps 763 mmHg 79%
    01:00 -1°C° 0 mm 7 mps 763 mmHg 77%
    02:00 -1°C° 0 mm 7 mps 763 mmHg 76%
    03:00 -1°C° 0 mm 7 mps 763 mmHg 75%
    04:00 -1°C° 0 mm 7 mps 763 mmHg 74%
    05:00 -1°C° 0 mm 7 mps 763 mmHg 74%
    06:00 -1°C° 0 mm 7 mps 763 mmHg 73%
    07:00 -1°C° 0 mm 7 mps 763 mmHg 73%
    08:00 -1°C° 0 mm 7 mps 764 mmHg 72%
    09:00 0°C° 0 mm 7 mps 764 mmHg 68%
    10:00 +2°C° 0 mm 7 mps 764 mmHg 64%
    11:00 +3°C° 0 mm 7 mps 764 mmHg 60%
    12:00 +3°C° 0 mm 7 mps 764 mmHg 58%
    13:00 +4°C° 0 mm 6 mps 764 mmHg 56%
    14:00 +4°C° 0 mm 6 mps 763 mmHg 54%
    15:00 +3°C° 0 mm 5 mps 763 mmHg 57%
    16:00 +3°C° 0 mm 4 mps 763 mmHg 60%
    17:00 +3°C° 0 mm 4 mps 763 mmHg 63%
    18:00 +2°C° 0 mm 3 mps 763 mmHg 63%
    19:00 +2°C° 0 mm 3 mps 763 mmHg 64%
    20:00 +2°C° 0 mm 3 mps 763 mmHg 64%
    21:00 +3°C° 0 mm 3 mps 763 mmHg 65%
    22:00 +4°C° 0 mm 2 mps 763 mmHg 66%
    23:00 +4°C° 0 mm 2 mps 762 mmHg 66%

    14 December, Friday

    Time Temperature Precipitation Wind Pressure Humidity
    00:00 +4°C° 0.1 mm 2 mps 762 mmHg 68%
    01:00 +4°C° 0.1 mm 2 mps 762 mmHg 71%
    02:00 +4°C° 0.1 mm 2 mps 762 mmHg 73%
    03:00 +4°C° 0.6 mm 2 mps 762 mmHg 75%
    04:00 +4°C° 0.6 mm 2 mps 762 mmHg 78%
    05:00 +4°C° 0.6 mm 2 mps 762 mmHg 80%
    06:00 +4°C° 0.5 mm 2 mps 762 mmHg 80%
    07:00 +2°C° 0.5 mm 3 mps 762 mmHg 80%
    08:00 +2°C° 0.5 mm 3 mps 762 mmHg 80%
    09:00 +2°C° 0.1 mm 3 mps 763 mmHg 79%
    10:00 +3°C° 0.1 mm 4 mps 763 mmHg 78%
    11:00 +3°C° 0.1 mm 4 mps 764 mmHg 77%
    12:00 +2°C° 0 mm 5 mps 764 mmHg 77%
    13:00 +2°C° 0 mm 5 mps 764 mmHg 76%
    14:00 +2°C° 0 mm 5 mps 764 mmHg 75%
    15:00 +1°C° 0 mm 5 mps 765 mmHg 77%
    16:00 +1°C° 0 mm 5 mps 765 mmHg 78%
    17:00 0°C° 0 mm 4 mps 766 mmHg 80%
    18:00 0°C° 0 mm 4 mps 766 mmHg 80%
    19:00 -1°C° 0 mm 4 mps 767 mmHg 80%
    20:00 -1°C° 0 mm 4 mps 767 mmHg 80%
    21:00 -1°C° 0 mm 4 mps 767 mmHg 79%
    22:00 0°C° 0 mm 3 mps 768 mmHg 79%
    23:00 0°C° 0 mm 3 mps 768 mmHg 78%

    15 December, Saturday

    Time Temperature Precipitation Wind Pressure Humidity
    00:00 0°C° 0 mm 3 mps 768 mmHg 78%
    01:00 0°C° 0 mm 3 mps 768 mmHg 77%
    02:00 0°C° 0 mm 3 mps 768 mmHg 76%
    03:00 0°C° 0 mm 3 mps 768 mmHg 76%
    04:00 0°C° 0 mm 3 mps 768 mmHg 76%
    05:00 -1°C° 0 mm 4 mps 768 mmHg 76%
    06:00 -1°C° 0 mm 4 mps 768 mmHg 78%
    07:00 -1°C° 0 mm 4 mps 769 mmHg 80%
    08:00 0°C° 0 mm 4 mps 769 mmHg 82%
    09:00 +1°C° 0 mm 4 mps 769 mmHg 81%
    10:00 +2°C° 0 mm 5 mps 769 mmHg 80%
    11:00 +3°C° 0 mm 5 mps 769 mmHg 79%
    12:00 +5°C° 0.1 mm 5 mps 769 mmHg 79%
    13:00 +4°C° 0.1 mm 6 mps 768 mmHg 79%
    14:00 +4°C° 0.1 mm 6 mps 768 mmHg 79%
    15:00 +4°C° 0.1 mm 6 mps 768 mmHg 81%
    16:00 +4°C° 0.1 mm 6 mps 768 mmHg 82%
    17:00 +3°C° 0.1 mm 6 mps 768 mmHg 84%
    18:00 +3°C° 0.4 mm 7 mps 768 mmHg 85%
    19:00 +3°C° 0.4 mm 7 mps 768 mmHg 86%
    20:00 +4°C° 0.4 mm 7 mps 768 mmHg 87%
    21:00 +4°C° 0.3 mm 7 mps 768 mmHg 88%
    22:00 +4°C° 0.3 mm 7 mps 767 mmHg 88%
    23:00 +4°C° 0.3 mm 8 mps 767 mmHg 88%

    16 December, Sunday

    Time Temperature Precipitation Wind Pressure Humidity
    00:00 +4°C° 0.3 mm 8 mps 767 mmHg 88%
    01:00 +4°C° 0.3 mm 8 mps 767 mmHg 89%
    02:00 +4°C° 0.3 mm 8 mps 766 mmHg 89%
    03:00 +4°C° 0.3 mm 8 mps 766 mmHg 89%
    04:00 +4°C° 0.3 mm 8 mps 766 mmHg 90%
    05:00 +4°C° 0.3 mm 8 mps 766 mmHg 90%
    06:00 +4°C° 0.5 mm 8 mps 766 mmHg 90%
    07:00 +4°C° 0.5 mm 8 mps 766 mmHg 91%
    08:00 +4°C° 0.5 mm 8 mps 766 mmHg 92%
    09:00 +4°C° 0.6 mm 8 mps 766 mmHg 91%
    10:00 +4°C° 0.6 mm 8 mps 766 mmHg 91%
    11:00 +4°C° 0.6 mm 8 mps 766 mmHg 91%
    12:00 +3°C° 0.4 mm 9 mps 765 mmHg 89%
    13:00 +3°C° 0.4 mm 9 mps 765 mmHg 88%
    14:00 +3°C° 0.4 mm 9 mps 765 mmHg 87%
    15:00 +2°C° 0.7 mm 9 mps 765 mmHg 88%
    16:00 +2°C° 0.7 mm 10 mps 765 mmHg 89%
    17:00 +1°C° 0.7 mm 10 mps 765 mmHg 89%
    18:00 0°C° 1.2 mm 10 mps 765 mmHg 90%
    19:00 0°C° 1.2 mm 10 mps 765 mmHg 91%
    20:00 -2°C° 1.2 mm 10 mps 765 mmHg 92%
    21:00 -2°C° 1.2 mm 11 mps 765 mmHg 92%
    22:00 -3°C° 1.2 mm 11 mps 765 mmHg 92%
    23:00 -3°C° 1.2 mm 11 mps 766 mmHg 93%
    Show more